Home > Weather > Medford > Past weeks

Flag for USA Weather for the Past 2 Weeks in Medford, Oregon, USA

Now
68 °F

Sunny.


Feels Like: 68 °F
Forecast: 44 / 71 °F
Wind: 3 mph from North

Location: Rogue Valley International Airport

Current Time: Apr 30, 2016 at 4:24:46 PM

Latest Report: Apr 30, 2016 at 2:53 PM


Visibility: 10 mi

Pressure: 30.13 "Hg

Humidity: 38%

Dew Point: 41 °F

Location of MedfordLocation

Historic Weather in Medford — Graph

°F

Medford Temperature Yesterday

Maximum temperature yesterday: 63 °F (at 4:53 PM)
Minimum temperature yesterday: 46 °F (at 3:53 AM)
Average temperature yesterday: 53 °F

High & Low Weather Summary for the Past Weeks

 TemperatureHumidityPressure
High90 °F (Apr 18, 4:53 PM)93% (Apr 22, 1:53 AM)30.32 "Hg (Apr 22, 1:53 AM)
Low35 °F (Apr 26, 3:53 AM)11% (Apr 18, 5:53 PM)29.58 "Hg (Apr 22, 2:53 AM)
Average57 °F59%30.03 "Hg
* Reported Apr 15 1:53 PM — Apr 30 1:53 PM, Medford, Weather by CustomWeather, © 2016

Note: Actual official high and low records may vary slightly from our data, if they occured in-between our weather recording intervals... More about our weather records

Advertising

Medford Weather History for the Previous 24 Hours

Scroll right to see more
 ConditionsComfort  
Time TempWeatherWind HumidityBarometerVisibility
1:53 PM
Sat, Apr 30
65 °FScattered clouds.7 mph40%30.15 "Hg10 mi
12:53 PM61 °FScattered clouds.5 mph44%30.18 "Hg10 mi
11:53 AM59 °FScattered clouds.7 mph46%30.21 "Hg10 mi
10:53 AM57 °FScattered clouds.6 mph51%30.23 "Hg10 mi
9:53 AM53 °FScattered clouds.3 mph64%30.25 "Hg10 mi
8:53 AM50 °FScattered clouds.No wind77%30.26 "Hg10 mi
7:53 AM48 °FScattered clouds.No wind83%30.27 "Hg10 mi
6:53 AM46 °FPassing clouds.5 mph89%30.25 "Hg10 mi
5:53 AM45 °FPassing clouds.No wind90%30.24 "Hg10 mi
4:53 AM45 °FPassing clouds.6 mph93%30.24 "Hg10 mi
3:53 AM47 °FClear.3 mph90%30.24 "Hg10 mi
2:53 AM49 °FPassing clouds.No wind86%30.24 "Hg10 mi
1:53 AM50 °FMostly cloudy.6 mph83%30.24 "Hg10 mi
12:53 AM50 °FLight rain. Mostly cloudy.6 mph83%30.22 "Hg10 mi
11:53 PM
Fri, Apr 29
52 °FOvercast.3 mph69%30.21 "Hg10 mi
10:53 PM52 °FPassing clouds.9 mph66%30.21 "Hg10 mi
9:53 PM53 °FOvercast.8 mph64%30.20 "Hg10 mi
8:53 PM54 °FScattered clouds.9 mph59%30.18 "Hg10 mi
7:53 PM56 °FMostly cloudy.10 mph55%30.16 "Hg10 mi
6:53 PM57 °FPassing clouds.13 mph49%30.14 "Hg10 mi
5:53 PM59 °FPartly sunny.18 mph49%30.14 "Hg10 mi
4:53 PM63 °FBroken clouds.15 mph41%30.10 "Hg10 mi
Weather by CustomWeather, © 2016

See weather overviewHow to use our weather pages